[Iaude] MPEC K57: 2017 DS165 [a=40.74,e=0.06,i=14.4,H=9.4]
    mpec at cfa.harvard.edu 
    mpec at cfa.harvard.edu
       
    Thu May 23 12:29:26 EDT 2024
    
    
  
M.P.E.C. 2024-K57                                  Issued 2024 May 23, 16:27 UT
     The Minor Planet Electronic Circulars contain information on unusual
         minor planets, routine data on comets and natural satellites,
         and occasional editorial announcements.  They are published
    on behalf of Division F of the International Astronomical Union by the
          Minor Planet Center, Smithsonian Astrophysical Observatory,
                          Cambridge, MA 02138, U.S.A.
			  
             Prepared using the Tamkin Foundation Computer Network
                              MPC at CFA.HARVARD.EDU
            URL https://www.minorplanetcenter.net/    ISSN 1523-6714
                                   2017 DS165                                   
Observations:
     K17DG5S 4C2016 12 25.54929 10 03 42.15 +02 19 05.2          25.3 r1EK057T09
     K17DG5S 4C2016 12 25.58674 10 03 42.09 +02 19 05.4          25.4 i1EK057T09
     K17DG5S 4C2016 12 25.59777 10 03 42.06 +02 19 05.2          25.0 i1EK057T09
     K17DG5S 4C2016 12 25.60159 10 03 42.04 +02 19 04.7          25.5 i1EK057T09
     K17DG5S 4C2016 12 25.62003 10 03 41.96 +02 19 05.1          25.4 i1EK057T09
     K17DG5S 4C2017 01 02.50845 10 03 19.46 +02 19 08.1          25.3 i1EK057T09
     K17DG5S 4C2017 01 02.55486 10 03 19.32 +02 19 08.1          25.5 i1EK057T09
     K17DG5S 4C2017 01 02.62872 10 03 19.07 +02 19 08.1          26.0 g1EK057T09
     K17DG5S 4C2017 01 21.44850 10 02 07.38 +02 21 42.8          25.1 z1EK057T09
     K17DG5S 4C2017 01 21.45233 10 02 07.34 +02 21 42.6          25.3 z1EK057T09
     K17DG5S 4C2017 01 21.46362 10 02 07.30 +02 21 43.0          25.0 z1EK057T09
     K17DG5S 4C2017 01 21.49713 10 02 07.16 +02 21 43.3          24.8 z1EK057T09
     K17DG5S 4C2017 01 21.50455 10 02 07.13 +02 21 43.5          24.9 z1EK057T09
     K17DG5S 4C2017 01 21.51947 10 02 07.06 +02 21 43.6          24.8 z1EK057T09
     K17DG5S 4C2017 01 21.52330 10 02 07.06 +02 21 43.6          24.8 z1EK057T09
     K17DG5S 4C2017 01 21.53071 10 02 07.00 +02 21 43.8          24.2 z1EK057T09
     K17DG5S 4C2017 01 21.55293 10 02 06.90 +02 21 43.8          24.4 z1EK057T09
     K17DG5S 4C2017 01 23.35198 10 01 58.95 +02 22 09.2          24.7 r1EK057T09
     K17DG5S 4C2017 01 23.35766 10 01 58.95 +02 22 09.2          25.0 r1EK057T09
     K17DG5S 4C2017 01 23.37416 10 01 58.90 +02 22 09.0          24.8 r1EK057T09
     K17DG5S 4C2017 01 23.38565 10 01 58.84 +02 22 09.2          24.9 r1EK057T09
     K17DG5S 4C2017 01 23.39135 10 01 58.83 +02 22 09.9          24.5 r1EK057T09
     K17DG5S 4C2017 01 23.41887 10 01 58.70 +02 22 10.0          24.9 r1EK057T09
     K17DG5S 4C2017 01 23.43584 10 01 58.64 +02 22 10.0          25.0 r1EK057T09
     K17DG5S 4C2017 01 23.44310 10 01 58.58 +02 22 10.2          25.5 r1EK057T09
     K17DG5S 4C2017 01 23.49071 10 01 58.33 +02 22 10.7          24.7 i1EK057T09
     K17DG5S 4C2017 01 23.50215 10 01 58.32 +02 22 11.2          25.4 i1EK057T09
     K17DG5S 4C2017 01 23.50600 10 01 58.29 +02 22 11.0          24.6 i1EK057T09
     K17DG5S 4C2017 01 23.51343 10 01 58.26 +02 22 11.2          24.9 i1EK057T09
     K17DG5S 4C2017 01 23.53459 10 01 58.17 +02 22 11.6          24.8 i1EK057T09
     K17DG5S 4C2017 01 23.59562 10 01 57.89 +02 22 12.2          24.8 i1EK057T09
     K17DG5S 4C2017 01 30.42076 10 01 26.46 +02 24 01.7          24.5 i1EK057T09
     K17DG5S 4C2017 01 30.44278 10 01 26.36 +02 24 01.8          25.1 i1EK057T09
     K17DG5S 4C2017 01 30.44661 10 01 26.34 +02 24 02.3          24.2 i1EK057T09
     K17DG5S 4C2017 01 30.45397 10 01 26.31 +02 24 02.0          24.5 i1EK057T09
     K17DG5S 4C2017 01 30.46494 10 01 26.26 +02 24 02.3          24.7 i1EK057T09
     K17DG5S 4C2017 01 30.46877 10 01 26.23 +02 24 02.2          24.1 i1EK057T09
     K17DG5S 4C2017 01 30.52425 10 01 25.97 +02 24 03.7          24.4 z1EK057T09
     K17DG5S 4C2017 01 30.53514 10 01 25.92 +02 24 03.3          24.3 z1EK057T09
     K17DG5S 4C2017 01 30.53900 10 01 25.90 +02 24 03.3          24.6 z1EK057T09
     K17DG5S 4C2017 01 30.54618 10 01 25.89 +02 24 03.3          24.4 z1EK057T09
     K17DG5S 4C2017 02 02.45873 10 01 11.98 +02 24 56.8          25.4 r1EK057T09
     K17DG5S 4C2017 02 02.46478 10 01 11.93 +02 24 56.9          25.0 r1EK057T09
     K17DG5S 4C2017 02 02.47353 10 01 11.87 +02 24 56.9          25.9 r1EK057T09
     K17DG5S*4C2017 02 21.31699 09 59 38.32 +02 31 54.4          25.7 z1EK057T09
     K17DG5S 4C2017 02 21.33121 09 59 38.26 +02 31 54.8          25.8 z1EK057T09
     K17DG5S 4C2017 02 21.33887 09 59 38.22 +02 31 55.1          25.8 z1EK057T09
     K17DG5S 4C2017 02 21.39002 09 59 37.94 +02 31 56.6          25.0 z1EK057T09
     K17DG5S 4C2017 02 21.40807 09 59 37.89 +02 31 56.9          25.3 z1EK057T09
     K17DG5S 4C2017 02 23.45915 09 59 27.63 +02 32 48.1          25.7 r1EK057T09
     K17DG5S 4C2017 02 23.47280 09 59 27.56 +02 32 48.8          26.3 r1EK057T09
     K17DG5S 4C2017 02 23.47596 09 59 27.55 +02 32 48.5          25.3 r1EK057T09
     K17DG5S 4C2017 02 23.48645 09 59 27.49 +02 32 49.1          26.2 r1EK057T09
     K17DG5S 4C2017 02 25.27038 09 59 18.66 +02 33 34.6          24.7 i1EK057T09
     K17DG5S 4C2017 02 25.31757 09 59 18.38 +02 33 36.1          25.1 i1EK057T09
     K17DG5S 4C2017 02 25.36493 09 59 18.18 +02 33 37.0          25.7 i1EK057T09
     K17DG5S 4C2017 02 25.41253 09 59 17.93 +02 33 38.0          25.0 i1EK057T09
     K17DG5S 4C2017 02 25.42020 09 59 17.90 +02 33 38.5          24.7 i1EK057T09
     K17DG5S 4C2017 02 25.42391 09 59 17.87 +02 33 38.5          25.2 i1EK057T09
     K17DG5S 4C2017 02 25.43849 09 59 17.81 +02 33 39.0          25.6 i1EK057T09
     K17DG5S 4C2017 02 25.44233 09 59 17.79 +02 33 39.0          24.7 i1EK057T09
     K17DG5S 4C2017 02 25.44604 09 59 17.76 +02 33 38.8          24.8 i1EK057T09
     K17DG5S 4C2017 03 04.28551 09 58 44.41 +02 36 38.9          24.4 z1EK057T09
     K17DG5S 4C2017 03 04.30733 09 58 44.34 +02 36 39.2          24.9 z1EK057T09
     K17DG5S 4C2017 03 04.31098 09 58 44.31 +02 36 39.4          24.4 z1EK057T09
     K17DG5S 4C2017 03 04.32902 09 58 44.23 +02 36 40.1          24.9 z1EK057T09
     K17DG5S 4C2017 03 04.33650 09 58 44.20 +02 36 40.2          24.4 z1EK057T09
     K17DG5S 4C2017 03 04.35463 09 58 44.11 +02 36 40.9          24.9 z1EK057T09
     K17DG5S 4C2017 03 04.44130 09 58 43.68 +02 36 42.7          25.2 i1EK057T09
     K17DG5S 4C2017 03 04.44514 09 58 43.67 +02 36 43.1          25.4 i1EK057T09
     K17DG5S 4C2017 03 04.44888 09 58 43.64 +02 36 43.1          25.5 i1EK057T09
     K17DG5S 4C2017 03 04.46710 09 58 43.54 +02 36 43.7          25.5 i1EK057T09
     K17DG5S 4C2017 03 04.47080 09 58 43.53 +02 36 43.9          25.5 i1EK057T09
     K17DG5S 4C2017 03 04.48502 09 58 43.45 +02 36 44.4          25.1 i1EK057T09
     K17DG5S 4C2017 03 04.48885 09 58 43.44 +02 36 44.2          25.4 i1EK057T09
     K17DG5S 4C2017 03 04.49253 09 58 43.43 +02 36 44.4          25.0 i1EK057T09
     K17DG5S 4C2017 03 04.50666 09 58 43.35 +02 36 44.8          25.0 i1EK057T09
     K17DG5S 4C2017 03 06.49634 09 58 33.91 +02 37 38.1          25.5 r1EK057T09
     K17DG5S 4C2017 03 06.49950 09 58 33.89 +02 37 38.3          25.5 r1EK057T09
     K17DG5S 4C2017 03 06.51016 09 58 33.82 +02 37 38.6          26.0 r1EK057T09
     K17DG5S 4C2017 03 06.51332 09 58 33.82 +02 37 38.6          25.5 r1EK057T09
     K17DG5S 4C2017 03 06.52393 09 58 33.75 +02 37 38.9          26.3 r1EK057T09
     K17DG5S 4C2017 03 06.52710 09 58 33.77 +02 37 38.9          25.8 r1EK057T09
     K17DG5S 4C2017 03 06.53779 09 58 33.72 +02 37 39.3          26.1 r1EK057T09
     K17DG5S 4C2018 01 17.46122 10 07 36.58 +01 32 37.7          25.5 i1EK057T09
     K17DG5S 4C2018 01 17.51830 10 07 36.33 +01 32 38.2          25.2 i1EK057T09
     K17DG5S 4C2018 01 17.54536 10 07 36.20 +01 32 38.6          25.0 i1EK057T09
     K17DG5S 1C2019 05 09.35687010 05 53.93 +01 26 21.9                WEK057T09
     K17DG5S 1C2019 05 09.37850710 05 53.92 +01 26 22.4                WEK057T09
Observer details:
T09 Subaru Telescope, Maunakea.  Observers H. Aihara, Y. AlSayyad, M. Ando, R.
    Armstrong, J. Bosch, E. Egami, H. Furusawa, J. Furusawa, S. Harasawa, Y.
    Harikane, B.-C. Hsieh, H. Ikeda, K. Ito, I. Iwata, T. Kodama, M. Koike, M.
    Kokubo, Y. Komiyama, X. Li, Y. Liang, Y.-T. Lin, R. H. Lupton, N. B. Lust,
    L. A. MacArthur, K. Mawatari, S. Mineo, H. Miyatake, S. Miyazaki, S. More,
    T. Morishima, H. Murayama, K. Nakajima, F. Nakata, A. J. Nishizawa, M.
    Oguri, N. Okabe, Y. Okura, Y. Ono, K. Osato, M. Ouchi, Y.-C. Pan, A. A.
    Plazas Malagon, P. A. Price, S. L. Reed, E. S. Rykoff, T. Shibuya, M.
    Simunovic, M. A. Strauss, K. Sugimori, Y. Suto, N. Suzuki, M. Takada, Y.
    Takagi, T. Takata, S. Takita, M. Tanaka, S. Tang, D. S. Taranu, T. Terai,
    Y. Toba, E. L. Turner, H. Uchiyama, B. Vijarnwannaluk, C. Z. Waters, Y.
    Yamada, N. Yamamoto, T. Yamashita.  Measurers H. Fukuyama, I. Shimokuri,
    S. Deen.  8.2-m f/2.0 reflector + CCD(HSC), 8.3-m Subaru Telescope + CCD.
Orbital elements:
2017 DS165                                                                      
Epoch 2024 Mar. 31.0 TT = JDT 2460400.5                 Alexandersen            
M 322.88577              (2000.0)            P               Q                  
n   0.00379054     Peri.  270.47377     -0.88557079     +0.40481247             
a  40.7381976      Node   293.42049     -0.26146628     -0.83975976             
e   0.0560589      Incl.   14.37393     -0.38392676     -0.36184307             
P 260              H    9.45          G   0.15           U   7                  
Residuals in seconds of arc
161225 T09  0.1-  0.1+    170123 T09  0.0   0.1-    170225 T09  0.0   0.0
161225 T09  0.5+  0.4+    170130 T09  0.1-  0.2+    170225 T09  0.2-  0.3-
mailing list